ZACUBE-1 (TSHEPISOSAT)

Last updated on Mon Sep 15 2025 00:03:09 GMT+0000 (Coordinated Universal Time)

1 39417U 13066B 25256.83581019 .00005239 00000+0 44501-3 0 9990 2 39417 97.7898 213.4324 0045933 90.4207 270.2279 14.97495870639314
UTC large
Height (km)
Speed (km/s)
/
Latitude / Longitude
Inclination (degrees)
Orbital Period (minutes)
Azimuth
Elevation
Range (km)
Doppler Factor

Next 0 passes for location: London (51.5072 / 0.1276)

Sorry there are no passes over London.